"read_dt","SO2 (ppb)","flags","PMT voltage (V)","lamp voltage (V)","lamp intensity (Hz)","internal temp (C)","react chamber temp (C)","sample flow (l/min)","pres (mmHg)","SO2 bkg (ppb)","SO2 coefficient"
2016-05-15 00:00:00,2079E-3,5C000400,-0724,0835,12100,029.3,045.5,0.252,746.7,01.17,0.508
2016-05-15 00:01:00,2106E-3,5C000400,-0724,0834,12072,029.3,045.5,0.252,746.6,01.17,0.508
2016-05-15 00:02:00,2063E-3,5C000400,-0724,0835,11997,029.3,045.5,0.253,746.6,01.17,0.508
2016-05-15 00:03:00,2163E-3,5C000400,-0724,0834,12231,029.3,045.5,0.252,746.6,01.17,0.508
2016-05-15 00:04:00,1951E-3,5C000400,-0724,0835,12102,029.3,045.5,0.252,746.6,01.17,0.508
2016-05-15 00:05:00,2030E-3,5C000400,-0724,0835,12050,029.3,045.5,0.252,746.5,01.17,0.508
2016-05-15 00:06:00,2236E-3,5C000400,-0724,0835,12163,029.4,045.5,0.252,746.6,01.17,0.508
2016-05-15 00:07:00,2146E-3,5C000400,-0724,0834,12265,029.4,045.5,0.253,746.5,01.17,0.508
2016-05-15 00:08:00,2062E-3,5C000400,-0724,0834,12118,029.4,045.5,0.253,746.5,01.17,0.508
2016-05-15 00:09:00,2032E-3,5C000400,-0724,0834,12055,029.3,045.5,0.252,746.5,01.17,0.508
2016-05-15 00:10:00,2114E-3,5C000400,-0724,0834,12123,029.3,045.5,0.253,746.5,01.17,0.508
2016-05-15 00:11:00,2071E-3,5C000400,-0724,0834,11978,029.4,045.5,0.253,746.5,01.17,0.508
2016-05-15 00:12:00,2061E-3,5C000400,-0724,0834,12208,029.4,045.4,0.252,746.5,01.17,0.508
2016-05-15 00:13:00,2095E-3,5C000400,-0724,0834,12164,029.4,045.5,0.252,746.5,01.17,0.508
2016-05-15 00:14:00,2175E-3,5C000400,-0724,0834,12090,029.4,045.5,0.252,746.5,01.17,0.508
2016-05-15 00:15:00,2097E-3,5C000400,-0724,0835,12041,029.4,045.5,0.252,746.5,01.17,0.508
2016-05-15 00:16:00,2005E-3,5C000400,-0724,0834,12270,029.4,045.5,0.252,746.5,01.17,0.508
2016-05-15 00:17:00,2022E-3,5C000400,-0724,0833,12132,029.4,045.5,0.252,746.5,01.17,0.508
2016-05-15 00:18:00,2107E-3,5C000400,-0724,0835,12269,029.4,045.4,0.252,746.4,01.17,0.508
2016-05-15 00:19:00,2056E-3,5C000400,-0724,0835,12094,029.4,045.5,0.252,746.4,01.17,0.508
2016-05-15 00:20:00,2117E-3,5C000400,-0724,0834,12213,029.5,045.5,0.252,746.5,01.17,0.508
2016-05-15 00:21:00,2088E-3,5C000400,-0724,0835,12226,029.4,045.5,0.252,746.4,01.17,0.508
2016-05-15 00:22:00,2014E-3,5C000400,-0724,0834,12010,029.4,045.5,0.252,746.5,01.17,0.508
2016-05-15 00:23:00,2167E-3,5C000400,-0724,0835,12159,029.5,045.5,0.252,746.4,01.17,0.508
2016-05-15 00:24:00,2015E-3,5C000400,-0724,0835,12172,029.4,045.5,0.252,746.4,01.17,0.508
2016-05-15 00:25:00,2055E-3,5C000400,-0724,0834,12121,029.5,045.5,0.252,746.3,01.17,0.508
2016-05-15 00:26:00,1971E-3,5C000400,-0724,0835,12139,029.4,045.5,0.252,746.5,01.17,0.508
2016-05-15 00:27:00,2001E-3,5C000400,-0724,0834,12024,029.5,045.5,0.252,746.5,01.17,0.508
2016-05-15 00:28:00,1996E-3,5C000400,-0724,0835,12177,029.5,045.5,0.252,746.5,01.17,0.508
2016-05-15 00:29:00,1890E-3,5C000400,-0724,0835,12211,029.5,045.5,0.252,746.3,01.17,0.508
2016-05-15 00:30:00,1920E-3,5C000400,-0724,0834,12126,029.5,045.5,0.252,746.5,01.17,0.508
2016-05-15 00:31:00,1991E-3,5C000400,-0724,0834,12138,029.5,045.5,0.252,746.4,01.17,0.508
2016-05-15 00:32:00,1989E-3,5C000400,-0724,0834,12273,029.5,045.5,0.252,746.4,01.17,0.508
2016-05-15 00:33:00,1988E-3,5C000400,-0724,0834,12242,029.5,045.5,0.252,746.4,01.17,0.508
2016-05-15 00:34:00,2137E-3,5C000400,-0724,0834,12057,029.5,045.5,0.252,746.3,01.17,0.508
2016-05-15 00:35:00,2062E-3,5C000400,-0724,0834,12092,029.5,045.5,0.252,746.3,01.17,0.508
2016-05-15 00:36:00,2047E-3,5C000400,-0724,0835,12205,029.5,045.5,0.252,746.3,01.17,0.508
2016-05-15 00:37:00,2079E-3,5C000400,-0724,0834,12181,029.5,045.5,0.252,746.3,01.17,0.508
2016-05-15 00:38:00,2112E-3,5C000400,-0724,0835,12173,029.5,045.5,0.252,746.3,01.17,0.508
2016-05-15 00:39:00,2097E-3,5C000400,-0724,0834,12096,029.5,045.5,0.252,746.4,01.17,0.508
2016-05-15 00:40:00,2029E-3,5C000400,-0724,0834,12174,029.5,045.5,0.252,746.3,01.17,0.508
2016-05-15 00:41:00,1933E-3,5C000400,-0724,0835,12123,029.5,045.5,0.252,746.5,01.17,0.508
2016-05-15 00:42:00,2115E-3,5C000400,-0724,0835,12136,029.6,045.5,0.252,746.5,01.17,0.508
2016-05-15 00:43:00,2113E-3,5C000400,-0724,0835,12236,029.5,045.5,0.252,746.5,01.17,0.508
2016-05-15 00:44:00,2230E-3,5C000400,-0724,0835,12324,029.5,045.5,0.252,746.5,01.17,0.508
2016-05-15 00:45:00,2044E-3,5C000400,-0724,0835,12059,029.5,045.5,0.252,746.3,01.17,0.508
2016-05-15 00:46:00,2038E-3,5C000400,-0724,0834,12143,029.5,045.5,0.252,746.4,01.17,0.508
2016-05-15 00:47:00,2103E-3,5C000400,-0724,0834,12047,029.5,045.5,0.252,746.4,01.17,0.508
2016-05-15 00:48:00,2070E-3,5C000400,-0724,0835,12206,029.5,045.5,0.252,746.5,01.17,0.508
2016-05-15 00:49:00,1928E-3,5C000400,-0724,0834,12183,029.5,045.5,0.252,746.5,01.17,0.508
2016-05-15 00:50:00,2276E-3,5C000400,-0724,0834,12102,029.6,045.5,0.252,746.5,01.17,0.508
2016-05-15 00:51:00,2008E-3,5C000400,-0724,0836,12232,029.6,045.5,0.252,746.5,01.17,0.508
2016-05-15 00:52:00,2018E-3,5C000400,-0724,0833,12183,029.6,045.5,0.252,746.7,01.17,0.508
2016-05-15 00:53:00,1994E-3,5C000400,-0724,0834,12260,029.5,045.5,0.252,746.6,01.17,0.508
2016-05-15 00:54:00,2102E-3,5C000400,-0724,0835,12176,029.6,045.5,0.252,746.6,01.17,0.508
2016-05-15 00:55:00,1979E-3,5C000400,-0724,0833,12013,029.6,045.5,0.252,746.7,01.17,0.508
2016-05-15 00:56:00,2060E-3,5C000400,-0724,0835,12174,029.6,045.5,0.252,746.7,01.17,0.508
2016-05-15 00:57:00,2154E-3,5C000400,-0724,0834,12119,029.6,045.5,0.252,746.8,01.17,0.508
2016-05-15 00:58:00,2033E-3,5C000400,-0724,0835,12121,029.6,045.5,0.252,746.8,01.17,0.508
2016-05-15 00:59:00,1970E-3,5C000400,-0724,0835,12138,029.6,045.4,0.252,746.8,01.17,0.508
2016-05-15 01:00:00,2121E-3,5C000400,-0724,0834,12199,029.6,045.5,0.252,746.9,01.17,0.508
2016-05-15 01:01:00,2031E-3,5C000400,-0724,0835,12100,029.6,045.5,0.252,746.8,01.17,0.508
2016-05-15 01:02:00,2119E-3,5C000400,-0724,0835,12164,029.6,045.5,0.252,746.8,01.17,0.508
2016-05-15 01:03:00,1913E-3,5C000400,-0724,0834,12252,029.6,045.5,0.252,746.8,01.17,0.508
2016-05-15 01:04:00,2041E-3,5C000400,-0724,0834,12160,029.6,045.5,0.252,746.8,01.17,0.508
2016-05-15 01:05:00,2021E-3,5C000400,-0724,0834,12146,029.6,045.5,0.252,746.9,01.17,0.508
2016-05-15 01:06:00,2025E-3,5C000400,-0724,0834,12162,029.6,045.5,0.252,746.8,01.17,0.508
2016-05-15 01:07:00,1986E-3,5C000400,-0724,0835,12185,029.6,045.5,0.252,746.8,01.17,0.508
2016-05-15 01:08:00,2123E-3,5C000400,-0724,0835,12101,029.6,045.5,0.252,746.8,01.17,0.508
2016-05-15 01:09:00,2076E-3,5C000400,-0724,0835,12099,029.6,045.5,0.252,746.8,01.17,0.508
2016-05-15 01:10:00,1986E-3,5C000400,-0724,0834,12086,029.6,045.5,0.252,746.8,01.17,0.508
2016-05-15 01:11:00,1965E-3,5C000400,-0724,0835,12221,029.6,045.5,0.252,746.8,01.17,0.508
2016-05-15 01:12:00,2067E-3,5C000400,-0724,0835,12246,029.6,045.5,0.252,746.8,01.17,0.508
2016-05-15 01:13:00,2085E-3,5C000400,-0724,0834,12210,029.7,045.5,0.252,746.8,01.17,0.508
2016-05-15 01:14:00,1989E-3,5C000400,-0724,0835,12059,029.7,045.5,0.252,746.8,01.17,0.508
2016-05-15 01:15:00,2019E-3,5C000400,-0724,0834,12161,029.6,045.5,0.252,746.8,01.17,0.508
2016-05-15 01:16:00,2038E-3,5C000400,-0724,0834,12211,029.7,045.5,0.252,746.7,01.17,0.508
2016-05-15 01:17:00,1987E-3,5C000400,-0724,0834,12152,029.6,045.5,0.252,746.8,01.17,0.508
2016-05-15 01:18:00,2020E-3,5C000400,-0724,0835,12021,029.7,045.5,0.252,746.7,01.17,0.508
2016-05-15 01:19:00,2102E-3,5C000400,-0724,0834,12187,029.7,045.5,0.252,746.8,01.17,0.508
2016-05-15 01:20:00,2133E-3,5C000400,-0724,0834,12119,029.7,045.5,0.252,746.8,01.17,0.508
2016-05-15 01:21:00,2066E-3,5C000400,-0724,0834,12167,029.7,045.5,0.252,746.7,01.17,0.508
2016-05-15 01:22:00,2115E-3,5C000400,-0724,0835,11938,029.7,045.5,0.252,746.8,01.17,0.508
2016-05-15 01:23:00,2149E-3,5C000400,-0724,0834,12147,029.7,045.5,0.252,746.7,01.17,0.508
2016-05-15 01:24:00,1960E-3,5C000400,-0724,0834,12193,029.7,045.5,0.252,746.8,01.17,0.508
2016-05-15 01:25:00,2094E-3,5C000400,-0724,0834,12141,029.7,045.5,0.252,746.8,01.17,0.508
2016-05-15 01:26:00,1981E-3,5C000400,-0724,0835,12140,029.7,045.5,0.252,746.8,01.17,0.508
2016-05-15 01:27:00,2057E-3,5C000400,-0724,0834,12052,029.7,045.5,0.252,746.8,01.17,0.508
2016-05-15 01:28:00,2059E-3,5C000400,-0724,0835,12136,029.7,045.5,0.251,746.8,01.17,0.508
2016-05-15 01:29:00,2075E-3,5C000400,-0724,0835,12201,029.7,045.5,0.252,746.8,01.17,0.508
2016-05-15 01:30:00,2089E-3,5C000400,-0724,0835,12295,029.7,045.5,0.252,746.8,01.17,0.508
2016-05-15 01:31:00,2115E-3,5C000400,-0724,0834,12143,029.7,045.5,0.252,746.8,01.17,0.508
2016-05-15 01:32:00,2014E-3,5C000400,-0724,0835,12155,029.8,045.5,0.251,746.8,01.17,0.508
2016-05-15 01:33:00,2019E-3,5C000400,-0724,0835,12045,029.7,045.5,0.252,746.8,01.17,0.508
2016-05-15 01:34:00,2144E-3,5C000400,-0724,0834,12033,029.7,045.5,0.252,746.8,01.17,0.508
2016-05-15 01:35:00,2154E-3,5C000400,-0724,0833,12193,029.7,045.5,0.252,746.8,01.17,0.508
2016-05-15 01:36:00,2157E-3,5C000400,-0724,0835,12146,029.7,045.5,0.251,746.8,01.17,0.508
2016-05-15 01:37:00,2063E-3,5C000400,-0724,0835,12006,029.7,045.5,0.252,746.9,01.17,0.508
2016-05-15 01:38:00,2131E-3,5C000400,-0724,0835,12066,029.8,045.5,0.252,746.8,01.17,0.508
2016-05-15 01:39:00,2115E-3,5C000400,-0724,0834,12027,029.7,045.5,0.252,746.8,01.17,0.508
2016-05-15 01:40:00,2201E-3,5C000400,-0724,0835,12129,029.8,045.5,0.252,746.8,01.17,0.508
2016-05-15 01:41:00,2009E-3,5C000400,-0724,0834,12220,029.8,045.5,0.251,746.8,01.17,0.508
2016-05-15 01:42:00,2093E-3,5C000400,-0724,0834,12237,029.8,045.5,0.252,746.7,01.17,0.508
2016-05-15 01:43:00,1998E-3,5C000400,-0724,0835,12292,029.8,045.5,0.252,746.8,01.17,0.508
2016-05-15 01:44:00,2035E-3,5C000400,-0724,0834,12112,029.8,045.5,0.252,746.8,01.17,0.508
2016-05-15 01:45:00,1900E-3,5C000400,-0724,0834,12101,029.8,045.5,0.251,746.8,01.17,0.508
2016-05-15 01:46:00,2034E-3,5C000400,-0724,0834,12097,029.8,045.5,0.252,746.7,01.17,0.508
2016-05-15 01:47:00,2028E-3,5C000400,-0724,0834,12153,029.8,045.5,0.252,746.8,01.17,0.508
2016-05-15 01:48:00,2136E-3,5C000400,-0724,0835,12134,029.8,045.5,0.252,746.9,01.17,0.508
2016-05-15 01:49:00,1977E-3,5C000400,-0724,0835,12256,029.8,045.5,0.251,746.8,01.17,0.508
2016-05-15 01:50:00,2020E-3,5C000400,-0724,0835,12177,029.8,045.5,0.252,746.9,01.17,0.508
2016-05-15 01:51:00,1952E-3,5C000400,-0724,0835,12168,029.8,045.5,0.252,746.9,01.17,0.508
2016-05-15 01:52:00,2043E-3,5C000400,-0724,0835,12156,029.8,045.5,0.252,746.9,01.17,0.508
2016-05-15 01:53:00,2134E-3,5C000400,-0724,0834,12107,029.8,045.5,0.251,746.8,01.17,0.508
2016-05-15 01:54:00,2050E-3,5C000400,-0724,0834,12157,029.8,045.5,0.251,746.8,01.17,0.508
2016-05-15 01:55:00,1956E-3,5C000400,-0724,0835,12082,029.9,045.5,0.252,746.8,01.17,0.508
2016-05-15 01:56:00,2115E-3,5C000400,-0724,0834,12185,029.9,045.5,0.252,746.9,01.17,0.508
2016-05-15 01:57:00,2054E-3,5C000400,-0724,0835,12070,029.9,045.5,0.251,746.9,01.17,0.508
2016-05-15 01:58:00,2057E-3,5C000400,-0724,0835,12198,029.9,045.5,0.251,746.9,01.17,0.508
2016-05-15 01:59:00,2035E-3,5C000400,-0724,0834,12219,029.9,045.5,0.252,746.9,01.17,0.508
2016-05-15 02:00:00,2076E-3,5C000400,-0724,0834,12114,029.9,045.5,0.252,746.9,01.17,0.508
2016-05-15 02:01:00,1939E-3,5C000400,-0724,0835,12162,029.9,045.5,0.252,746.8,01.17,0.508
2016-05-15 02:02:00,2027E-3,5C000400,-0724,0835,12129,029.9,045.5,0.251,746.9,01.17,0.508
2016-05-15 02:03:00,2051E-3,5C000400,-0724,0834,12077,029.9,045.5,0.251,746.9,01.17,0.508
2016-05-15 02:04:00,1958E-3,5C000400,-0724,0835,12131,029.9,045.5,0.252,746.7,01.17,0.508
2016-05-15 02:05:00,2092E-3,5C000400,-0724,0834,12096,029.9,045.5,0.251,746.9,01.17,0.508
2016-05-15 02:06:00,1990E-3,5C000400,-0724,0834,12140,029.9,045.5,0.251,746.8,01.17,0.508
2016-05-15 02:07:00,2031E-3,5C000400,-0724,0835,12042,029.9,045.5,0.251,746.8,01.17,0.508
2016-05-15 02:08:00,1915E-3,5C000400,-0724,0835,12263,029.9,045.5,0.252,746.9,01.17,0.508
2016-05-15 02:09:00,2074E-3,5C000400,-0724,0834,12261,029.9,045.5,0.251,746.7,01.17,0.508
2016-05-15 02:10:00,2067E-3,5C000400,-0724,0836,12109,030.0,045.5,0.252,746.9,01.17,0.508
2016-05-15 02:11:00,2119E-3,5C000400,-0724,0834,12206,030.0,045.5,0.251,746.9,01.17,0.508
2016-05-15 02:12:00,2026E-3,5C000400,-0724,0835,12076,030.0,045.5,0.251,747.0,01.17,0.508
2016-05-15 02:13:00,2129E-3,5C000400,-0724,0834,12172,030.0,045.5,0.251,746.9,01.17,0.508
2016-05-15 02:14:00,2029E-3,5C000400,-0724,0834,12199,030.0,045.5,0.251,747.0,01.17,0.508
2016-05-15 02:15:00,2008E-3,5C000400,-0724,0834,12126,030.0,045.5,0.251,746.9,01.17,0.508
2016-05-15 02:16:00,1910E-3,5C000400,-0724,0834,12196,030.0,045.5,0.251,747.0,01.17,0.508
2016-05-15 02:17:00,2031E-3,5C000400,-0724,0834,12122,030.0,045.5,0.251,746.9,01.17,0.508
2016-05-15 02:18:00,2125E-3,5C000400,-0724,0834,12102,030.0,045.5,0.251,747.0,01.17,0.508
2016-05-15 02:19:00,2024E-3,5C000400,-0724,0835,12243,030.0,045.5,0.251,747.0,01.17,0.508
2016-05-15 02:20:00,1948E-3,5C000400,-0724,0834,12252,030.0,045.5,0.251,746.9,01.17,0.508
2016-05-15 02:21:00,2115E-3,5C000400,-0724,0835,12210,030.0,045.5,0.251,746.9,01.17,0.508
2016-05-15 02:22:00,2255E-3,5C000400,-0724,0834,12137,030.0,045.5,0.251,747.0,01.17,0.508
2016-05-15 02:23:00,2095E-3,5C000400,-0724,0835,12031,030.0,045.5,0.251,746.9,01.17,0.508
2016-05-15 02:24:00,1923E-3,5C000400,-0724,0834,12224,030.0,045.5,0.251,746.9,01.17,0.508
2016-05-15 02:25:00,1957E-3,5C000400,-0724,0835,12108,030.1,045.5,0.251,747.0,01.17,0.508
2016-05-15 02:26:00,1935E-3,5C000400,-0724,0835,12061,030.1,045.5,0.251,747.0,01.17,0.508
2016-05-15 02:27:00,1904E-3,5C000400,-0724,0835,12197,030.1,045.5,0.251,747.0,01.17,0.508
2016-05-15 02:28:00,2059E-3,5C000400,-0724,0835,12268,030.1,045.5,0.251,746.9,01.17,0.508
2016-05-15 02:29:00,2027E-3,5C000400,-0724,0834,12168,030.1,045.5,0.251,746.9,01.17,0.508
2016-05-15 02:30:00,2100E-3,5C000400,-0724,0835,12206,030.1,045.5,0.251,747.0,01.17,0.508
2016-05-15 02:31:00,2055E-3,5C000400,-0724,0835,12151,030.1,045.5,0.251,747.0,01.17,0.508
2016-05-15 02:32:00,1925E-3,5C000400,-0724,0835,12175,030.1,045.5,0.251,747.0,01.17,0.508
2016-05-15 02:33:00,2017E-3,5C000400,-0724,0835,12183,030.1,045.5,0.251,747.0,01.17,0.508
2016-05-15 02:34:00,2106E-3,5C000400,-0724,0834,12194,030.1,045.5,0.251,747.0,01.17,0.508
2016-05-15 02:35:00,2080E-3,5C000400,-0724,0835,12212,030.1,045.5,0.251,747.0,01.17,0.508
2016-05-15 02:36:00,1932E-3,5C000400,-0724,0835,12155,030.1,045.5,0.251,747.0,01.17,0.508
2016-05-15 02:37:00,2026E-3,5C000400,-0724,0834,12122,030.1,045.5,0.251,747.1,01.17,0.508
2016-05-15 02:38:00,2076E-3,5C000400,-0724,0834,12030,030.1,045.5,0.251,747.0,01.17,0.508
2016-05-15 02:39:00,2118E-3,5C000400,-0724,0835,12106,030.2,045.5,0.251,747.1,01.17,0.508
2016-05-15 02:40:00,2009E-3,5C000400,-0724,0835,12072,030.2,045.5,0.251,747.0,01.17,0.508
2016-05-15 02:41:00,1916E-3,5C000400,-0724,0834,12188,030.2,045.5,0.251,747.1,01.17,0.508
2016-05-15 02:42:00,2077E-3,5C000400,-0724,0834,12059,030.2,045.5,0.251,747.1,01.17,0.508
2016-05-15 02:43:00,2035E-3,5C000400,-0724,0835,12194,030.2,045.5,0.251,747.1,01.17,0.508
2016-05-15 02:44:00,2058E-3,5C000400,-0724,0834,12140,030.2,045.5,0.251,747.1,01.17,0.508
2016-05-15 02:45:00,2048E-3,5C000400,-0724,0835,12133,030.2,045.5,0.251,747.2,01.17,0.508
2016-05-15 02:46:00,2140E-3,5C000400,-0724,0835,12141,030.2,045.5,0.251,747.1,01.17,0.508
2016-05-15 02:47:00,2047E-3,5C000400,-0724,0835,12241,030.2,045.5,0.251,747.1,01.17,0.508
2016-05-15 02:48:00,2099E-3,5C000400,-0724,0835,12080,030.3,045.5,0.251,747.2,01.17,0.508
2016-05-15 02:49:00,2089E-3,5C000400,-0724,0834,12055,030.2,045.5,0.251,747.2,01.17,0.508
2016-05-15 02:50:00,1920E-3,5C000400,-0724,0834,12187,030.2,045.5,0.251,747.0,01.17,0.508
2016-05-15 02:51:00,2035E-3,5C000400,-0724,0834,12084,030.2,045.5,0.251,747.0,01.17,0.508
2016-05-15 02:52:00,2051E-3,5C000400,-0724,0834,12162,030.2,045.5,0.251,747.1,01.17,0.508
2016-05-15 02:53:00,2062E-3,5C000400,-0724,0835,12280,030.2,045.5,0.251,747.0,01.17,0.508
2016-05-15 02:54:00,1878E-3,5C000400,-0724,0835,12222,030.3,045.5,0.251,747.0,01.17,0.508
2016-05-15 02:55:00,2065E-3,5C000400,-0724,0835,12267,030.3,045.5,0.251,747.0,01.17,0.508
2016-05-15 02:56:00,2075E-3,5C000400,-0724,0834,12089,030.3,045.5,0.251,746.9,01.17,0.508
2016-05-15 02:57:00,2014E-3,5C000400,-0724,0834,12155,030.3,045.5,0.251,746.9,01.17,0.508
2016-05-15 02:58:00,2048E-3,5C000400,-0724,0834,12265,030.3,045.5,0.251,746.8,01.17,0.508
2016-05-15 02:59:00,1979E-3,5C000400,-0724,0834,12213,030.3,045.5,0.251,746.9,01.17,0.508
2016-05-15 03:00:00,2059E-3,5C000400,-0724,0835,12073,030.3,045.5,0.251,746.9,01.17,0.508
2016-05-15 03:01:00,1981E-3,5C000400,-0724,0834,11981,030.3,045.5,0.251,747.0,01.17,0.508
2016-05-15 03:02:00,2071E-3,5C000400,-0724,0835,12178,030.3,045.5,0.251,746.8,01.17,0.508
2016-05-15 03:03:00,1921E-3,5C000400,-0724,0835,12068,030.3,045.5,0.250,746.8,01.17,0.508
2016-05-15 03:04:00,1910E-3,5C000400,-0724,0835,12223,030.3,045.5,0.251,746.7,01.17,0.508
2016-05-15 03:05:00,1885E-3,5C000400,-0724,0835,12100,030.3,045.5,0.251,746.6,01.17,0.508
2016-05-15 03:06:00,2131E-3,5C000400,-0724,0835,12071,030.3,045.5,0.250,746.8,01.17,0.508
2016-05-15 03:07:00,1960E-3,5C000400,-0724,0835,12041,030.4,045.5,0.251,746.8,01.17,0.508
2016-05-15 03:08:00,2086E-3,5C000400,-0724,0834,12006,030.3,045.5,0.251,746.6,01.17,0.508
2016-05-15 03:09:00,2065E-3,5C000400,-0724,0835,12118,030.4,045.5,0.251,746.5,01.17,0.508
2016-05-15 03:10:00,2068E-3,5C000400,-0724,0835,11982,030.4,045.5,0.251,746.7,01.17,0.508
2016-05-15 03:11:00,2087E-3,5C000400,-0724,0834,12124,030.4,045.5,0.250,746.8,01.17,0.508
2016-05-15 03:12:00,1937E-3,5C000400,-0724,0835,12098,030.4,045.5,0.251,746.8,01.17,0.508
2016-05-15 03:13:00,2071E-3,5C000400,-0724,0835,12176,030.4,045.5,0.251,746.6,01.17,0.508
2016-05-15 03:14:00,1857E-3,5C000400,-0724,0835,12093,030.4,045.5,0.250,746.8,01.17,0.508
2016-05-15 03:15:00,1863E-3,5C000400,-0724,0835,12078,030.4,045.5,0.251,746.6,01.17,0.508
2016-05-15 03:16:00,1966E-3,5C000400,-0724,0835,12110,030.4,045.5,0.251,746.7,01.17,0.508
2016-05-15 03:17:00,2029E-3,5C000400,-0724,0835,12100,030.4,045.5,0.250,746.8,01.17,0.508
2016-05-15 03:18:00,2111E-3,5C000400,-0724,0834,12213,030.4,045.5,0.251,746.8,01.17,0.508
2016-05-15 03:19:00,1960E-3,5C000400,-0724,0835,12173,030.4,045.5,0.251,746.9,01.17,0.508
2016-05-15 03:20:00,2052E-3,5C000400,-0724,0835,12135,030.4,045.5,0.250,746.8,01.17,0.508
2016-05-15 03:21:00,2023E-3,5C000400,-0724,0835,12062,030.4,045.5,0.251,746.8,01.17,0.508
2016-05-15 03:22:00,2014E-3,5C000400,-0724,0834,11931,030.4,045.5,0.251,746.8,01.17,0.508
2016-05-15 03:23:00,2096E-3,5C000400,-0724,0835,12113,030.4,045.5,0.250,746.7,01.17,0.508
2016-05-15 03:24:00,2135E-3,5C000400,-0724,0835,12166,030.4,045.5,0.251,746.7,01.17,0.508
2016-05-15 03:25:00,2033E-3,5C000400,-0724,0835,12258,030.5,045.5,0.250,746.6,01.17,0.508
2016-05-15 03:26:00,2183E-3,5C000400,-0724,0835,12034,030.4,045.5,0.250,746.8,01.17,0.508
2016-05-15 03:27:00,1992E-3,5C000400,-0724,0835,12058,030.4,045.5,0.251,746.8,01.17,0.508
2016-05-15 03:28:00,1952E-3,5C000400,-0724,0835,12215,030.4,045.5,0.250,746.7,01.17,0.508
2016-05-15 03:29:00,2081E-3,5C000400,-0724,0834,12197,030.4,045.5,0.250,746.8,01.17,0.508
2016-05-15 03:30:00,2025E-3,5C000400,-0724,0835,12116,030.4,045.5,0.251,746.6,01.17,0.508
2016-05-15 03:31:00,1894E-3,5C000400,-0724,0835,12259,030.4,045.5,0.250,746.6,01.17,0.508
2016-05-15 03:32:00,2076E-3,5C000400,-0724,0835,12127,030.5,045.5,0.251,746.6,01.17,0.508
2016-05-15 03:33:00,2045E-3,5C000400,-0724,0834,12200,030.5,045.5,0.251,746.5,01.17,0.508
2016-05-15 03:34:00,2005E-3,5C000400,-0724,0835,12102,030.5,045.5,0.250,746.7,01.17,0.508
2016-05-15 03:35:00,2011E-3,5C000400,-0724,0835,12147,030.4,045.5,0.251,746.5,01.17,0.508
2016-05-15 03:36:00,2071E-3,5C000400,-0724,0835,12130,030.4,045.5,0.250,746.5,01.17,0.508
2016-05-15 03:37:00,2021E-3,5C000400,-0724,0836,12082,030.4,045.5,0.250,746.5,01.17,0.508
2016-05-15 03:38:00,1981E-3,5C000400,-0724,0835,12166,030.5,045.5,0.250,746.4,01.17,0.508
2016-05-15 03:39:00,1925E-3,5C000400,-0724,0835,12187,030.5,045.5,0.250,746.4,01.17,0.508
2016-05-15 03:40:00,2027E-3,5C000400,-0724,0835,12170,030.5,045.5,0.251,746.6,01.17,0.508
2016-05-15 03:41:00,1942E-3,5C000400,-0724,0836,12165,030.5,045.5,0.250,746.5,01.17,0.508
2016-05-15 03:42:00,2016E-3,5C000400,-0724,0835,12056,030.5,045.5,0.250,746.5,01.17,0.508
2016-05-15 03:43:00,1900E-3,5C000400,-0724,0835,12168,030.5,045.5,0.251,746.7,01.17,0.508
2016-05-15 03:44:00,2054E-3,5C000400,-0724,0835,12142,030.5,045.5,0.250,746.7,01.17,0.508
2016-05-15 03:45:00,2020E-3,5C000400,-0724,0834,12129,030.5,045.5,0.251,746.6,01.17,0.508
2016-05-15 03:46:00,1990E-3,5C000400,-0724,0835,12125,030.5,045.5,0.250,746.7,01.17,0.508
2016-05-15 03:47:00,1969E-3,5C000400,-0724,0835,12228,030.5,045.5,0.250,746.7,01.17,0.508
2016-05-15 03:48:00,2107E-3,5C000400,-0724,0835,12128,030.5,045.5,0.250,746.6,01.17,0.508
2016-05-15 03:49:00,2036E-3,5C000400,-0724,0835,11980,030.5,045.5,0.250,746.9,01.17,0.508
2016-05-15 03:50:00,2102E-3,5C000400,-0724,0835,12208,030.5,045.5,0.250,746.8,01.17,0.508
2016-05-15 03:51:00,2075E-3,5C000400,-0724,0834,12123,030.5,045.5,0.250,746.8,01.17,0.508
2016-05-15 03:52:00,2020E-3,5C000400,-0724,0835,12206,030.5,045.5,0.250,746.8,01.17,0.508
2016-05-15 03:53:00,1969E-3,5C000400,-0724,0835,12080,030.5,045.5,0.251,746.8,01.17,0.508
2016-05-15 03:54:00,1947E-3,5C000400,-0724,0834,11979,030.5,045.5,0.250,746.8,01.17,0.508
2016-05-15 03:55:00,2076E-3,5C000400,-0724,0835,12204,030.5,045.5,0.250,746.7,01.17,0.508
2016-05-15 03:56:00,1881E-3,5C000400,-0724,0834,12235,030.5,045.5,0.250,746.8,01.17,0.508
2016-05-15 03:57:00,1974E-3,5C000400,-0724,0835,12131,030.5,045.5,0.250,746.7,01.17,0.508
2016-05-15 03:58:00,2056E-3,5C000400,-0724,0835,12169,030.5,045.5,0.250,746.7,01.17,0.508
2016-05-15 03:59:00,2061E-3,5C000400,-0724,0835,11761,030.5,045.5,0.250,746.7,01.17,0.508
2016-05-15 04:00:00,2023E-3,5C000400,-0724,0834,12273,030.5,045.5,0.250,746.8,01.17,0.508
2016-05-15 04:01:00,2028E-3,5C000400,-0724,0835,12144,030.5,045.5,0.250,746.9,01.17,0.508
2016-05-15 04:02:00,2061E-3,5C000400,-0724,0834,12245,030.5,045.5,0.250,746.8,01.17,0.508
2016-05-15 04:03:00,2077E-3,5C000400,-0724,0834,12114,030.5,045.5,0.251,746.8,01.17,0.508
2016-05-15 04:04:00,1973E-3,5C000400,-0724,0835,12125,030.5,045.5,0.250,746.7,01.17,0.508
2016-05-15 04:05:00,2119E-3,5C000400,-0724,0834,12041,030.5,045.5,0.250,746.9,01.17,0.508
2016-05-15 04:06:00,2031E-3,5C000400,-0724,0835,12138,030.5,045.5,0.250,746.9,01.17,0.508
2016-05-15 04:07:00,2103E-3,5C000400,-0724,0834,12067,030.5,045.5,0.250,746.6,01.17,0.508
2016-05-15 04:08:00,2011E-3,5C000400,-0724,0834,12261,030.5,045.5,0.251,746.7,01.17,0.508
2016-05-15 04:09:00,2038E-3,5C000400,-0724,0835,12174,030.5,045.5,0.251,746.6,01.17,0.508
2016-05-15 04:10:00,1947E-3,5C000400,-0724,0834,12173,030.5,045.5,0.251,746.7,01.17,0.508
2016-05-15 04:11:00,1920E-3,5C000400,-0724,0835,12035,030.5,045.5,0.250,746.7,01.17,0.508
2016-05-15 04:12:00,2061E-3,5C000400,-0724,0834,12227,030.5,045.5,0.250,746.7,01.17,0.508
2016-05-15 04:13:00,2097E-3,5C000400,-0724,0834,12061,030.6,045.5,0.251,746.8,01.17,0.508
2016-05-15 04:14:00,1915E-3,5C000400,-0724,0835,12142,030.5,045.5,0.250,746.8,01.17,0.508
2016-05-15 04:15:00,2068E-3,5C000400,-0724,0835,12187,030.5,045.5,0.250,746.8,01.17,0.508
2016-05-15 04:16:00,1946E-3,5C000400,-0724,0834,12187,030.5,045.5,0.250,746.7,01.17,0.508
2016-05-15 04:17:00,1972E-3,5C000400,-0724,0835,12058,030.5,045.5,0.250,746.8,01.17,0.508
2016-05-15 04:18:00,2124E-3,5C000400,-0724,0834,12177,030.6,045.5,0.251,746.8,01.17,0.508
2016-05-15 04:19:00,1902E-3,5C000400,-0724,0834,12019,030.6,045.5,0.250,746.8,01.17,0.508
2016-05-15 04:20:00,1948E-3,5C000400,-0724,0835,12121,030.5,045.5,0.250,746.9,01.17,0.508